Showing default

IRNSS 1D, 40547

Orbit data source: Space-Track

IRNSS 1D, 40547 is a payload satellite owned by ISRO (IN) in GEO that was launched on Sat, 28 Mar 2015 UTC via a PSLV-XL launch vehicle from the Sirharikota (SRI). Payload-class satellites include a variety of spacecraft equipped with specific instruments for various scientific and technological missions. These include communications satellites like Starlink; space stations such as the ISS; scientific satellites like the Hubble; Earth observation satellites from companies like Planet Labs, Umbra, and HawkEye 360; GPS; miniature CubeSats for education and research; and military/defense satellites.

Loading next visibility...
Identifier
40547, 2015-018A
Orbit
GEO
Country
Flag of ININ / IND
Related business
Manufacturer
ISRO SAC/Banga
Mission
Non-operational Civil Navigation
Bus & Motor
I1K, ISRO LAM
Mass
1,425 kg wet, 603 kg dry
Launch date (UTC)
2015-03-28 (10 years ago)
Launch vehicle
PSLV-XL
Launch site
Sirharikota (SRI)
Object type
Payload
Rocket body
Debris
Shape & HBR
Box + 2 Pan, 5.0 m
Radar Cross Section
6.961 m², Large (>1 m²)

Expand to show TLE details & history
Last TLE update: 1 day ago

TLE from 1 day ago
0 IRNSS 1D
1 40547U 15018A   25260.98865648 -.00000010  00000-0  00000-0 0  9996
2 40547  20.1378 244.1495 0013721 346.0192   9.5352  0.97965822 38239
Epoch: 2025-09-17T23:43Z
TLE epoch observation values (Epoch: 2025-09-17T23:43:39.919Z)
Latitude
-1.48577°
Longitude
-113.05273°
Altitude
36,387.78 km
Speed
3.055 km/s
True Right ascension
16h 00m 04s
True Declination
-1° 29' 03"
Sunlit
Object was in daylight at epoch
Visualization orbit readout
Latitude
Unknown
Longitude
Unknown
Altitude
Unknown
Speed
Unknown
Apparent Right ascension
Unknown
Apparent Declination
Unknown
Sunlit
N/A
Visualization observer readout
Local Sidereal Time
17:58:26
Azimuth
Unknown
Elevation
Unknown
Doppler factor
Unknown
Orbital elements
Apogee altitude
36,505.319 km
Perigee altitude
36,387.8 km
Semi-major axis
42,824.696 km
Eccentricity
0.00137
Inclination
20.1378°
RAAN
244.1495°
Arg. of periapsis
346.0192°
True anomaly
9.56129°
Mean anomaly
9.5352°
Eccentric anomaly
9.54824°
Mean motion
0.24491 °/min
Orbital period
1,469.94 mins
BSTAR
0
Loading maneuver chart data...
Computing Atmospheric mass density...
Loading historical data...
Loading historical data...
Loading historical data...
Loading historical data...
Loading historical data...
Loading historical data...
Loading historical data...
Other satellites on launch #18 in the year 2015 (2015-03-28 UTC)

Documentation

Showing up to 5 results
|